Weather History for Youngstown, OH

Change the Weather History Date:

Thursday, July 25, 2013

  Actual Average Record
Temperature  
Mean Temperature 62 °F 71 °F  
Max Temperature 74 °F 81 °F 97 °F (1934)
Min Temperature 49 °F 60 °F 44 °F (1953)
Degree Days  
Heating Degree Days 3 0  
Month to date heating degree days 7 8  
Since 1 June heating degree days 63 77  
Since 1 July heating degree days 7 8  
Cooling Degree Days 0 6  
Month to date cooling degree days 220 150  
Year to date cooling degree days 426 299  
Since 1 June cooling degree days 338 260  
Growing Degree Days 12 (Base 50)    
Moisture  
Dew Point 50 °F    
Average Humidity 67    
Maximum Humidity 93    
Minimum Humidity 41    
Precipitation  
Precipitation 0.00 in 0.14 in 1.11 in (1977)
Month to date precipitation 7.28 3.53  
Year to date precipitation 24.42 22.20  
Snow  
Snow 0.00 in 0.00 in - ()
Month to date snowfall 0.0 0.0  
Since 1 June snowfall T 0.0  
Since 1 July snowfall 0.0 0.0  
Snow Depth 0.00 in    
Sea Level Pressure  
Sea Level Pressure 30.08 in    
Wind  
Wind Speed 6 mph (NNE)    
Max Wind Speed 14 mph    
Max Gust Speed 20 mph    
Visibility 10 miles    
Events      
T = Trace of Precipitation, MM = Missing Value Source: NWS Daily Summary

Daily Weather History Graph

Daily Weather History Graph

Search for Another Location

Airport:

Trip Planner

Search our weather history database for the weather conditions in past years. The results will help you decide how hot, cold, wet, or windy it might be!

Date:

Astronomy

Jul. 25, 2013 Rise Set
Actual Time 6:11 AM EDT 8:46 PM EDT
Civil Twilight 5:39 AM EDT 9:17 PM EDT
Nautical Twilight 5:00 AM EDT 9:57 PM EDT
Astronomical Twilight 4:15 AM EDT 10:41 PM EDT
Moon 10:23 PM EDT (7/25) 9:42 AM EDT (7/25)
Length of Visible Light 15h 38m
Length of Day
14h 34m
Waning Gibbous, 88% of the Moon is Illuminated
Jul 25
Waning Gibbous
Jul 29
Last Quarter
Aug 6
New
Aug 14
First Quarter
Aug 20
Full

Hourly Weather History & Observations

Time (EDT) Temp. Dew Point Humidity Pressure Visibility Wind Dir Wind Speed Gust Speed Precip Events Conditions
12:51 AM 53.1 °F 50.0 °F 89% 30.05 in 10.0 mi NE 5.8 mph - N/A   Clear
1:51 AM 53.1 °F 50.0 °F 89% 30.04 in 10.0 mi NE 3.5 mph - N/A   Clear
2:51 AM 53.1 °F 50.0 °F 89% 30.04 in 10.0 mi NE 3.5 mph - N/A   Clear
3:51 AM 50.0 °F 48.0 °F 93% 30.06 in 10.0 mi Calm Calm - N/A   Partly Cloudy
4:51 AM 50.0 °F 46.9 °F 89% 30.07 in 10.0 mi NE 3.5 mph - N/A   Partly Cloudy
5:51 AM 50.0 °F 46.9 °F 89% 30.08 in 10.0 mi NE 4.6 mph - N/A   Clear
6:51 AM 50.0 °F 46.9 °F 89% 30.08 in 10.0 mi NE 5.8 mph - N/A   Partly Cloudy
7:51 AM 54.0 °F 48.9 °F 83% 30.09 in 10.0 mi NNE 6.9 mph - N/A   Partly Cloudy
8:51 AM 57.9 °F 46.9 °F 67% 30.10 in 10.0 mi ENE 5.8 mph - N/A   Partly Cloudy
9:51 AM 62.1 °F 48.9 °F 62% 30.10 in 10.0 mi ENE 9.2 mph - N/A   Partly Cloudy
10:51 AM 64.9 °F 48.9 °F 56% 30.10 in 10.0 mi East 8.1 mph - N/A   Clear
11:51 AM 66.9 °F 46.9 °F 49% 30.10 in 10.0 mi NE 6.9 mph - N/A   Clear
12:51 PM 70.0 °F 48.0 °F 46% 30.10 in 10.0 mi ENE 6.9 mph - N/A   Partly Cloudy
1:51 PM 72.0 °F 48.0 °F 43% 30.09 in 10.0 mi ENE 8.1 mph - N/A   Partly Cloudy
2:51 PM 73.0 °F 50.0 °F 44% 30.08 in 10.0 mi North 10.4 mph - N/A   Partly Cloudy
3:51 PM 73.9 °F 50.0 °F 43% 30.08 in 10.0 mi NNE 10.4 mph - N/A   Scattered Clouds
4:51 PM 73.9 °F 48.9 °F 41% 30.09 in 10.0 mi North 6.9 mph - N/A   Scattered Clouds
5:51 PM 73.9 °F 50.0 °F 43% 30.09 in 10.0 mi NNE 4.6 mph - N/A   Partly Cloudy
6:51 PM 73.0 °F 52.0 °F 48% 30.08 in 10.0 mi North 6.9 mph - N/A   Partly Cloudy
7:51 PM 70.0 °F 54.0 °F 57% 30.08 in 10.0 mi North 8.1 mph - N/A   Partly Cloudy
8:51 PM 63.0 °F 54.0 °F 72% 30.09 in 10.0 mi NW 4.6 mph - N/A   Partly Cloudy
9:51 PM 61.0 °F 53.1 °F 75% 30.11 in 10.0 mi NNW 4.6 mph - N/A   Partly Cloudy
10:51 PM 61.0 °F 52.0 °F 72% 30.11 in 10.0 mi NNE 5.8 mph - N/A   Clear
11:51 PM 59.0 °F 52.0 °F 78% 30.10 in 10.0 mi NE 6.9 mph - N/A   Clear